Regional Weather Roundup
Issued by NWS

Home | Current Version | Previous Version | Text Only | Print | Product List | Glossary Off
Versions: 1 2 3 4 5 6 7 8 9 10 11 12 13 14 15 16 17 18 19 20 21 22 23 24 25 26 27 28 29 30 31 32 33 34 35 36 37 38 39 40 41 42 43 44 45 46 47 48 49 50

000
ASUS43 KLSX 260307
RWRMO

WEATHER SUMMARY FOR MISSOURI
NATIONAL WEATHER SERVICE SPRINGFIELD MO
1000 PM CDT WED MAY 25 2016

NOTE: "FAIR" INDICATES FEW OR NO CLOUDS BELOW 12,000 FEET WITH NO
       SIGNIFICANT WEATHER AND/OR OBSTRUCTIONS TO VISIBILITY.
       CURRENT SKY AND/OR WEATHER CONDITIONS ARE NOT AVAILABLE FOR
       CHILLICOTHE AND FARMINGTON.

MOZ001>031-035>038-043-044-053-054-260400-
...NORTHERN AND WESTERN MISSOURI...

CITY           SKY/WX    TMP DP  RH WIND       PRES   REMARKS
KANSAS CTY INT MOCLDY    75  68  78 S10       29.86S
KANSAS C DTWN  PTCLDY    79  69  71 S9        29.86R
LEE`S SUMMIT   PTCLDY    77  68  73 SE9       29.88R
ST JOSEPH      CLOUDY    77  67  71 SE5       29.85R
CHILLICOTHE      N/A     75  66  73 CALM      29.88S
KIRKSVILLE     MOCLDY    72  65  78 SE8       29.91S

$$
MOZ066>068-077>081-088>096-101>105-260400-
...SOUTHWEST MISSOURI...

CITY           SKY/WX    TMP DP  RH WIND       PRES   REMARKS
SPRINGFIELD    MOCLDY    73  66  78 SE16      29.96R
JOPLIN         CLEAR     75  71  87 SE9       29.90S

$$
MOZ032>034-039>042-045>050-055>058-069>072-260400-
...CENTRAL MISSOURI...

CITY           SKY/WX    TMP DP  RH WIND       PRES   REMARKS
COLUMBIA       CLOUDY    73  64  73 S9        29.94R
JEFFERSON CITY PTCLDY    74  64  71 SE7       29.94R
ROLLA          CLEAR     70  65  84 S10       29.97R
SEDALIA        PTCLDY    74  66  76 S8        29.93R
WHITEMAN AFB   MOCLDY    75  68  78 S9        29.90R
WARRENSBURG    MOCLDY    73  64  73 SE7       29.89S

$$
MOZ051-052-059>065-260400-
...EAST CENTRAL MISSOURI...

CITY           SKY/WX    TMP DP  RH WIND       PRES   REMARKS
ST LOUIS INTL  PTCLDY    76  63  64 S8        29.98R
SPIRIT OF STL  CLEAR     75  65  70 S3        29.96R
ST CHARLES     CLEAR     76  64  66 S12       29.96R

$$
MOZ072>076-082>087-097>100-106>115-260400-
...SOUTH CENTRAL AND SOUTHEAST MISSOURI...

CITY           SKY/WX    TMP DP  RH WIND       PRES   REMARKS
CAPE GIRARDEAU CLOUDY    68  65  90 S7        30.03R
FARMINGTON     CLEAR     70  66  87 S8        30.02R
POPLAR BLUFF   CLEAR     69  66  90 S6        30.03R
WEST PLAINS    MOCLDY    72  66  81 S10       30.04R

$$



USA.gov is the U.S. government's official web portal to all federal, state and local government web resources and services.